Regional Weather Roundup
Issued by NWS

Home | Current Version | Previous Version | Graphics & Text | Print | Product List | Glossary On
Versions: 1 2 3 4 5 6 7 8 9 10 11 12 13 14 15 16 17 18 19 20 21 22 23 24 25 26 27 28 29 30 31 32 33 34 35 36 37 38 39 40 41 42 43 44 45 46 47 48 49 50
000
ASUS45 KCYS 232310
RWRWY

WYOMING REGIONAL WEATHER ROUNDUP
NATIONAL WEATHER SERVICE CHEYENNE WY
400 PM MST MON JAN 23 2017

NOTE:  "FAIR" INDICATES FEW OR NO CLOUDS BELOW 12,000 FEET
WITH NO SIGNIFICANT WEATHER AND/OR OBSTRUCTIONS TO VISIBILITY.

WYZ001-240000-
YELLOWSTONE NATIONAL PARK

CITY           SKY/WX    TMP DP  RH WIND       PRES   REMARKS
LK YELLOWSTONE   N/A     22  15  75 CALM      29.47R
W YELLOWSTONE  NOT AVBL

$$
WYZ002>013-054>058-071-098>099-240000-
NORTHERN WYOMING

CITY           SKY/WX    TMP DP  RH WIND       PRES   REMARKS
JACKSON        LGT SNOW  21  19  93 CALM      29.44F VSB 1
CODY           FAIR      22  18  85 NE15      29.58R WCI   9
GREYBULL       FAIR      26  19  74 NW9       29.59R WCI  17
WORLAND        CLOUDY    27  25  92 CALM      29.59R
SHERIDAN       FAIR      22  18  85 W16       29.65R WCI   8
BUFFALO        FAIR      27  18  69 NW12      29.61R WCI  17
GILLETTE       FAIR      28  21  75 N9        29.60R WCI  19
HULETT         FAIR      28  21  74 N7        29.62R WCI  21
NEWCASTLE      FAIR      32  27  80 NW8       29.57S WCI  25

$$
WYZ014>020-022>026-101>103-240000-
CENTRAL WYOMING

CITY           SKY/WX    TMP DP  RH WIND       PRES   REMARKS
BIG PINEY      CLOUDY    21  18  88 CALM      29.45R
PINEDALE       MOCLDY    27  25  93 E7        29.42F WCI  19
DUBOIS         NOT AVBL
LANDER         CLOUDY    26  21  81 W3        29.51S
RIVERTON       LGT SNOW  24  21  88 CALM      29.52F FOG
CASPER         CLOUDY    33  27  78 N5        29.53F WCI  29
DOUGLAS        CLOUDY    38  24  57 NE8       29.55R WCI  32

$$
WYZ021-027>030-104>119-240000-
SOUTHERN WYOMING

CITY           SKY/WX    TMP DP  RH WIND       PRES   REMARKS
EVANSTON       LGT SNOW  26  21  81 SW25      29.40R WCI  11
ROCK SPRINGS   FOG       29  27  92 E8        29.41F VSB<1/4 WCI  21
RAWLINS        CLOUDY    34  26  72 CALM      29.47F
LARAMIE        FAIR      30  27  88 NE7       29.50F WCI  23
CHEYENNE       CLOUDY    45  21  38 W15       29.52R
TORRINGTON     CLOUDY    44  27  51 CALM      29.52F

$$



USA.gov is the U.S. government's official web portal to all federal, state and local government web resources and services.